User: anonymous   Login
Location: Unspecified
(0.0000°N, 0.0000°E)
Time: 08:59:17
(UTC+00:00)
Language:

STARLINK-11469 [DTC] - Orbit

View from above orbital plane
View from above orbital plane
View from above satellite
View from above satellite

Ground track
Ground track

The orbit is defined by the following mean orbital elements,

1 62227U          26145.54830608 +.00000000 +00000-0 +17585-2 0 00002
2 62227  53.1566  82.3318 0001112  96.3869 263.7275 15.69774426    01
Epoch (UTC): 25 May 2026 13:09:33
Eccentricity: 0.0001112
inclination: 53.1566°
perigee height: 359 km
apogee height: 360 km
right ascension of ascending node: 82.3318°
argument of perigee: 96.3869°
revolutions per day: 15.69774426
mean anomaly at epoch: 263.7275°

The dashed part of the orbit path shows where the satellite is in the earth's shadow,  

DLR